�������l�o���
Date,Time,MP-1(��Sv/h),MP-2(��Sv/h),MP-3(��Sv/h),MP-4(��Sv/h),MP-5(��Sv/h),MP-6(��Sv/h),MP-7(��Sv/h),MP-8(��Sv/h),����,����(m/s),���J
2018/07/14,00:00,0.873,1.237,0.864,1.535,1.090,0.476,0.827,0.785,-,CALM,��
2018/07/14,00:10,0.873,1.236,0.868,1.540,1.089,0.474,0.829,0.785,��,0.8,��
2018/07/14,00:20,0.875,1.239,0.867,1.537,1.091,0.476,0.829,0.788,��,0.9,��
2018/07/14,00:30,0.874,1.239,0.865,1.540,1.090,0.475,0.829,0.786,�k�k��,0.6,��
2018/07/14,00:40,0.874,1.237,0.864,1.537,1.092,0.475,0.829,0.785,-,CALM,��
2018/07/14,00:50,0.871,1.238,0.866,1.538,1.091,0.476,0.831,0.785,�k�k��,0.8,��
2018/07/14,01:00,0.873,1.237,0.863,1.537,1.091,0.475,0.829,0.786,�k�k��,1.7,��
2018/07/14,01:10,0.872,1.236,0.867,1.538,1.090,0.475,0.831,0.786,�k��,3.0,��
2018/07/14,01:20,0.872,1.237,0.866,1.536,1.090,0.476,0.830,0.788,�k��,3.7,��
2018/07/14,01:30,0.873,1.236,0.867,1.535,1.089,0.476,0.829,0.784,�k��,3.6,��
2018/07/14,01:40,0.871,1.240,0.866,1.537,1.090,0.476,0.830,0.785,�k��,3.5,��
2018/07/14,01:50,0.873,1.238,0.865,1.538,1.086,0.475,0.830,0.784,�k��,3.5,��
2018/07/14,02:00,0.873,1.236,0.865,1.539,1.091,0.475,0.830,0.785,�k��,4.2,��
2018/07/14,02:10,0.872,1.236,0.865,1.539,1.091,0.476,0.828,0.785,�k��,3.8,��
2018/07/14,02:20,0.873,1.238,0.867,1.534,1.091,0.474,0.830,0.785,�k��,3.6,��
2018/07/14,02:30,0.872,1.235,0.865,1.538,1.091,0.475,0.828,0.786,�k��,4.1,��
2018/07/14,02:40,0.873,1.236,0.865,1.537,1.090,0.474,0.828,0.786,�k��,4.2,��
2018/07/14,02:50,0.873,1.233,0.863,1.535,1.088,0.476,0.828,0.784,���k��,3.8,��
2018/07/14,03:00,0.871,1.234,0.865,1.535,1.088,0.476,0.829,0.785,���k��,3.9,��
2018/07/14,03:10,0.872,1.237,0.868,1.539,1.089,0.475,0.828,0.784,���k��,3.8,��
2018/07/14,03:20,0.871,1.238,0.867,1.536,1.092,0.475,0.830,0.787,���k��,3.0,��
2018/07/14,03:30,0.874,1.238,0.867,1.536,1.093,0.475,0.829,0.786,���k��,2.6,��
2018/07/14,03:40,0.872,1.235,0.866,1.537,1.091,0.476,0.830,0.786,���k��,2.6,��
2018/07/14,03:50,0.873,1.237,0.865,1.539,1.092,0.477,0.829,0.785,�k��,4.2,��
2018/07/14,04:00,0.871,1.236,0.865,1.538,1.090,0.475,0.830,0.786,�k��,4.5,��
2018/07/14,04:10,0.871,1.236,0.865,1.539,1.089,0.475,0.828,0.786,�k��,3.5,��
2018/07/14,04:20,0.871,1.238,0.868,1.537,1.091,0.476,0.830,0.787,�k��,3.9,��
2018/07/14,04:30,0.873,1.237,0.866,1.538,1.088,0.475,0.828,0.787,�k��,5.2,��
2018/07/14,04:40,0.872,1.235,0.867,1.537,1.090,0.475,0.828,0.786,�k�k��,4.6,��
2018/07/14,04:50,0.873,1.236,0.866,1.539,1.090,0.475,0.829,0.787,�k��,4.5,��
2018/07/14,05:00,0.874,1.237,0.866,1.538,1.089,0.475,0.830,0.785,�k��,4.9,��
2018/07/14,05:10,0.871,1.239,0.866,1.538,1.090,0.475,0.829,0.786,�k��,3.7,��
2018/07/14,05:20,0.873,1.237,0.866,1.540,1.088,0.474,0.828,0.785,�k��,4.6,��
2018/07/14,05:30,0.873,1.239,0.866,1.536,1.092,0.475,0.827,0.784,�k��,4.1,��
2018/07/14,05:40,0.873,1.238,0.864,1.538,1.090,0.473,0.829,0.786,�k��,3.7,��
2018/07/14,05:50,0.875,1.235,0.866,1.537,1.090,0.475,0.830,0.786,�k��,4.7,��
2018/07/14,06:00,0.872,1.239,0.866,1.538,1.091,0.475,0.829,0.787,�k��,4.5,��
2018/07/14,06:10,0.873,1.237,0.866,1.538,1.090,0.474,0.829,0.787,�k��,4.0,��
2018/07/14,06:20,0.874,1.237,0.866,1.540,1.089,0.475,0.830,0.784,�k��,5.3,��
2018/07/14,06:30,0.877,1.237,0.867,1.540,1.088,0.476,0.830,0.788,�k��,5.2,��
2018/07/14,06:40,0.874,1.237,0.867,1.542,1.086,0.477,0.831,0.788,�k��,5.1,��
2018/07/14,06:50,0.873,1.239,0.867,1.538,1.091,0.476,0.830,0.786,�k��,3.3,��
2018/07/14,07:00,0.874,1.238,0.869,1.538,1.088,0.476,0.831,0.785,�k��,3.6,��
2018/07/14,07:10,0.873,1.236,0.868,1.539,1.089,0.476,0.831,0.783,�k��,3.4,��
2018/07/14,07:20,0.874,1.237,0.866,1.538,1.091,0.477,0.830,0.786,�k��,2.3,��
2018/07/14,07:30,0.874,1.238,0.866,1.540,1.091,0.475,0.831,0.784,�k��,2.6,��
2018/07/14,07:40,0.875,1.238,0.868,1.540,1.090,0.476,0.831,0.786,�k�k��,1.5,��
2018/07/14,07:50,0.877,1.239,0.868,1.538,1.091,0.475,0.829,0.785,�k,2.0,��
2018/07/14,08:00,0.874,1.237,0.866,1.537,1.090,0.476,0.830,0.787,�k�k��,2.0,��
2018/07/14,08:10,0.873,1.239,0.867,1.539,1.089,0.476,0.830,0.787,�k�k��,2.0,��
2018/07/14,08:20,0.873,1.239,0.866,1.540,1.092,0.476,0.832,0.787,�k��,1.5,��
2018/07/14,08:30,0.874,1.239,0.864,1.537,1.090,0.476,0.832,0.785,�k��,1.4,��
2018/07/14,08:40,0.874,1.240,0.867,1.543,1.092,0.478,0.832,0.785,�k�k��,0.9,��
2018/07/14,08:50,0.874,1.239,0.866,1.543,1.095,0.477,0.831,0.785,��,1.1,��
2018/07/14,09:00,0.875,1.239,0.865,1.541,1.091,0.475,0.832,0.787,���k��,1.7,��
2018/07/14,09:10,0.873,1.240,0.866,1.540,1.092,0.476,0.831,0.783,��,2.3,��
2018/07/14,09:20,0.874,1.241,0.869,1.541,1.093,0.476,0.832,0.783,���k��,1.7,��
2018/07/14,09:30,0.875,1.237,0.866,1.542,1.095,0.475,0.833,0.785,���k��,3.3,��
2018/07/14,09:40,0.875,1.243,0.866,1.542,1.094,0.476,0.832,0.785,���k��,3.6,��
2018/07/14,09:50,0.876,1.241,0.867,1.545,1.094,0.477,0.833,0.786,���k��,4.1,��
2018/07/14,10:00,0.877,1.243,0.870,1.543,1.097,0.477,0.833,0.785,��,2.9,��
2018/07/14,10:10,0.873,1.243,0.868,1.543,1.093,0.476,0.831,0.785,���쓌,2.3,��
2018/07/14,10:20,0.877,1.243,0.869,1.541,1.095,0.477,0.830,0.784,��,2.6,��
2018/07/14,10:30,0.877,1.246,0.870,1.541,1.099,0.477,0.829,0.785,��,3.2,��
2018/07/14,10:40,0.877,1.245,0.868,1.542,1.096,0.477,0.830,0.785,��,4.4,��
2018/07/14,10:50,0.878,1.245,0.869,1.544,1.098,0.479,0.833,0.786,���k��,3.7,��
2018/07/14,11:00,0.876,1.246,0.871,1.547,1.097,0.477,0.831,0.785,��,3.6,��
2018/07/14,11:10,0.877,1.248,0.870,1.543,1.099,0.478,0.832,0.783,���k��,3.9,��
2018/07/14,11:20,0.878,1.248,0.871,1.543,1.097,0.476,0.831,0.785,���k��,3.8,��
2018/07/14,11:30,0.878,1.248,0.871,1.542,1.098,0.477,0.832,0.786,���k��,5.3,��
2018/07/14,11:40,0.878,1.247,0.869,1.542,1.098,0.479,0.830,0.786,���k��,5.3,��
2018/07/14,11:50,0.877,1.250,0.869,1.543,1.102,0.477,0.831,0.786,���k��,4.5,��
2018/07/14,12:00,0.876,1.249,0.870,1.544,1.099,0.476,0.830,0.786,���k��,4.0,��
2018/07/14,12:10,0.876,1.251,0.871,1.541,1.100,0.477,0.831,0.785,�k��,3.5,��
2018/07/14,12:20,0.879,1.251,0.869,1.541,1.099,0.478,0.830,0.786,���k��,3.8,��
2018/07/14,12:30,0.879,1.252,0.870,1.544,1.100,0.476,0.829,0.785,���k��,4.3,��
2018/07/14,12:40,0.878,1.250,0.870,1.543,1.101,0.477,0.830,0.786,���k��,3.7,��
2018/07/14,12:50,0.879,1.247,0.869,1.540,1.101,0.477,0.833,0.784,���k��,3.1,��
2018/07/14,13:00,0.879,1.250,0.869,1.543,1.101,0.478,0.830,0.786,���k��,3.3,��
2018/07/14,13:10,0.878,1.251,0.870,1.545,1.101,0.476,0.832,0.786,���k��,3.6,��
2018/07/14,13:20,0.877,1.253,0.872,1.544,1.102,0.477,0.831,0.785,���k��,2.3,��
2018/07/14,13:30,0.879,1.252,0.871,1.545,1.103,0.479,0.832,0.787,��,2.6,��
2018/07/14,13:40,0.879,1.252,0.872,1.546,1.105,0.479,0.833,0.786,���k��,3.0,��
2018/07/14,13:50,0.878,1.253,0.871,1.545,1.102,0.478,0.831,0.784,���k��,3.3,��
2018/07/14,14:00,0.879,1.253,0.870,1.545,1.104,0.480,0.832,0.786,��,2.6,��
2018/07/14,14:10,0.878,1.251,0.873,1.547,1.102,0.478,0.831,0.786,���쓌,1.7,��
2018/07/14,14:20,0.880,1.252,0.872,1.547,1.102,0.479,0.831,0.786,�쓌,1.9,��
2018/07/14,14:30,0.880,1.252,0.873,1.546,1.106,0.480,0.832,0.787,�쓌,2.3,��
2018/07/14,14:40,0.880,1.254,0.873,1.548,1.103,0.479,0.834,0.786,�쓌,2.9,��
2018/07/14,14:50,0.881,1.253,0.872,1.547,1.106,0.479,0.831,0.787,��쓌,3.7,��
2018/07/14,15:00,0.881,1.252,0.872,1.544,1.105,0.479,0.833,0.787,�쓌,3.4,��
2018/07/14,15:10,0.881,1.253,0.872,1.547,1.104,0.480,0.833,0.785,��쓌,3.0,��
2018/07/14,15:20,0.882,1.256,0.873,1.549,1.104,0.478,0.834,0.788,��쓌,3.2,��
2018/07/14,15:30,0.881,1.255,0.874,1.549,1.106,0.479,0.834,0.788,��쓌,4.7,��
2018/07/14,15:40,0.883,1.256,0.872,1.551,1.105,0.478,0.834,0.787,��쓌,4.9,��
2018/07/14,15:50,0.882,1.257,0.872,1.549,1.107,0.479,0.832,0.787,��쓌,4.9,��
2018/07/14,16:00,0.883,1.257,0.872,1.546,1.105,0.477,0.833,0.787,��쓌,4.8,��
2018/07/14,16:10,0.882,1.257,0.874,1.548,1.107,0.478,0.833,0.788,��쓌,4.6,��
2018/07/14,16:20,0.882,1.257,0.875,1.551,1.106,0.478,0.832,0.788,��쓌,4.5,��
2018/07/14,16:30,0.882,1.260,0.874,1.548,1.108,0.477,0.833,0.786,��쓌,4.2,��
2018/07/14,16:40,0.881,1.258,0.874,1.549,1.107,0.476,0.833,0.788,��쓌,3.3,��
2018/07/14,16:50,0.882,1.256,0.873,1.548,1.106,0.478,0.835,0.789,��,4.5,��
2018/07/14,17:00,0.880,1.256,0.875,1.550,1.107,0.478,0.836,0.785,��,4.5,��
2018/07/14,17:10,0.885,1.259,0.874,1.549,1.106,0.475,0.835,0.787,��,3.9,��
2018/07/14,17:20,0.883,1.260,0.873,1.552,1.106,0.476,0.834,0.787,��,3.5,��
2018/07/14,17:30,0.884,1.259,0.875,1.552,1.108,0.478,0.834,0.788,��,4.2,��
2018/07/14,17:40,0.882,1.259,0.876,1.549,1.106,0.478,0.835,0.787,��,3.3,��
2018/07/14,17:50,0.883,1.257,0.875,1.551,1.106,0.477,0.836,0.787,��,3.6,��
2018/07/14,18:00,0.886,1.260,0.874,1.551,1.105,0.478,0.833,0.786,��,4.2,��
2018/07/14,18:10,0.884,1.258,0.874,1.553,1.109,0.477,0.835,0.787,��,4.0,��
2018/07/14,18:20,0.884,1.258,0.874,1.552,1.108,0.477,0.834,0.788,��,4.8,��
2018/07/14,18:30,0.883,1.256,0.875,1.553,1.109,0.476,0.835,0.788,��쓌,6.6,��
2018/07/14,18:40,0.882,1.257,0.872,1.552,1.109,0.477,0.833,0.786,��,7.1,��
2018/07/14,18:50,0.883,1.257,0.872,1.551,1.108,0.477,0.833,0.789,��,6.9,��
2018/07/14,19:00,0.883,1.256,0.874,1.550,1.108,0.478,0.833,0.787,��,6.6,��
2018/07/14,19:10,0.881,1.257,0.873,1.553,1.107,0.477,0.834,0.788,��쓌,7.2,��
2018/07/14,19:20,0.882,1.256,0.874,1.553,1.108,0.477,0.831,0.786,��,7.1,��
2018/07/14,19:30,0.881,1.257,0.874,1.553,1.109,0.476,0.832,0.786,��쓌,6.8,��
2018/07/14,19:40,0.880,1.258,0.875,1.553,1.109,0.478,0.832,0.787,��쓌,6.8,��
2018/07/14,19:50,0.881,1.258,0.873,1.553,1.108,0.478,0.833,0.787,��쓌,4.4,��
2018/07/14,20:00,0.881,1.258,0.871,1.553,1.108,0.479,0.831,0.789,��쓌,6.4,��
2018/07/14,20:10,0.881,1.259,0.875,1.552,1.112,0.478,0.831,0.786,��쓌,7.0,��
2018/07/14,20:20,0.880,1.259,0.877,1.551,1.109,0.477,0.832,0.787,��쓌,3.8,��
2018/07/14,20:30,0.881,1.258,0.876,1.553,1.109,0.480,0.832,0.787,��,4.2,��
2018/07/14,20:40,0.881,1.257,0.877,1.554,1.109,0.477,0.832,0.787,��,7.3,��
2018/07/14,20:50,0.883,1.258,0.876,1.554,1.110,0.478,0.833,0.788,��쓌,7.3,��
2018/07/14,21:00,0.883,1.259,0.876,1.555,1.107,0.478,0.832,0.788,��,7.2,��
2018/07/14,21:10,0.880,1.257,0.878,1.554,1.107,0.477,0.831,0.788,��,7.4,��
2018/07/14,21:20,0.881,1.259,0.876,1.554,1.108,0.479,0.831,0.788,��,7.0,��
2018/07/14,21:30,0.883,1.256,0.876,1.554,1.108,0.478,0.832,0.786,��,6.6,��
2018/07/14,21:40,0.881,1.258,0.877,1.554,1.109,0.478,0.832,0.788,��,6.3,��
2018/07/14,21:50,0.881,1.259,0.876,1.552,1.107,0.478,0.833,0.788,��,5.6,��
2018/07/14,22:00,0.883,1.256,0.876,1.552,1.109,0.479,0.833,0.787,��,6.6,��
2018/07/14,22:10,0.882,1.259,0.876,1.554,1.109,0.478,0.832,0.787,��,5.7,��
2018/07/14,22:20,0.883,1.257,0.877,1.555,1.108,0.478,0.832,0.789,��,5.5,��
2018/07/14,22:30,0.882,1.258,0.877,1.555,1.107,0.479,0.833,0.789,��,6.1,��
2018/07/14,22:40,0.882,1.261,0.875,1.555,1.108,0.480,0.833,0.789,��,5.8,��
2018/07/14,22:50,0.881,1.258,0.877,1.553,1.108,0.481,0.833,0.788,��,5.5,��
2018/07/14,23:00,0.881,1.258,0.876,1.553,1.110,0.480,0.834,0.789,��,4.7,��
2018/07/14,23:10,0.881,1.254,0.877,1.555,1.108,0.479,0.832,0.788,��,4.3,��
2018/07/14,23:20,0.881,1.255,0.877,1.552,1.108,0.479,0.833,0.787,��,4.3,��
2018/07/14,23:30,0.880,1.260,0.876,1.555,1.109,0.480,0.833,0.788,��,3.9,�L
2018/07/14,23:40,0.880,1.258,0.874,1.554,1.105,0.480,0.834,0.789,��쓌,3.9,��
2018/07/14,23:50,0.881,1.258,0.878,1.554,1.107,0.478,0.833,0.788,��,4.0,��
